| time (UTC) | temp F | wind direction | speed MPH | gust MPH | rain 1hr in | rain 24hr in | rain mn in | humidity % | barometer mb |
| 20260905103047 | 70 | 82 | 6.0 | 11.0 | 0.00 | 0.02 | 0.00 | 99 | 1010.7 |
| 20260905101543 | 70 | 74 | 5.0 | 11.0 | 0.00 | 0.02 | 0.00 | 99 | 1010.8 |
| 20260905100042 | 70 | 78 | 9.0 | 14.0 | 0.00 | 0.02 | 0.00 | 99 | 1010.7 |
| 20260905094557 | 71 | 70 | 2.0 | 5.0 | 0.00 | 0.02 | 0.00 | 99 | 1010.8 |
| 20260905093043 | 71 | 64 | 2.0 | 5.0 | 0.00 | 0.02 | 0.00 | 98 | 1010.6 |
| 20260905091537 | 71 | 76 | 0.0 | 7.0 | 0.00 | 0.02 | 0.00 | 98 | 1010.4 |
| 20260905090035 | 72 | 43 | 2.0 | 6.0 | 0.00 | 0.02 | 0.00 | 98 | 1010.4 |
| 20260905084540 | 72 | 64 | 2.0 | 7.0 | 0.00 | 0.02 | 0.00 | 98 | 1010.3 |
| 20260905083033 | 72 | 93 | 0.0 | 5.0 | 0.00 | 0.02 | 0.00 | 98 | 1010.1 |
| 20260905081532 | 72 | 71 | 0.0 | 0.0 | 0.00 | 0.02 | 0.00 | 98 | 1010.0 |
| 20260905080045 | 72 | 71 | 0.0 | 1.0 | 0.00 | 0.02 | 0.00 | 97 | 1009.9 |
| 20260905074529 | 74 | 57 | 0.0 | 0.0 | 0.00 | 0.02 | 0.00 | 98 | 1010.1 |
| 20260905073039 | 73 | 58 | 0.0 | 2.0 | 0.00 | 0.02 | 0.00 | 97 | 1010.2 |
| 20260905071527 | 74 | 33 | 0.0 | 2.0 | 0.00 | 0.02 | 0.00 | 97 | 1010.1 |
| 20260905070026 | 74 | 30 | 0.0 | 0.0 | 0.00 | 0.02 | 0.00 | 98 | 1010.0 |
| 20260905064525 | 74 | 82 | 0.0 | 2.0 | 0.00 | 0.02 | 0.00 | 98 | 1010.3 |
| 20260905063024 | 74 | 83 | 0.0 | 1.0 | 0.00 | 0.02 | 0.00 | 97 | 1010.4 |
| 20260905061529 | 74 | 83 | 0.0 | 0.0 | 0.00 | 0.02 | 0.00 | 97 | 1010.4 |
| 20260905060021 | 73 | 84 | 0.0 | 0.0 | 0.00 | 0.02 | 0.00 | 96 | 1010.5 |
| 20260905054520 | 74 | 84 | 0.0 | 2.0 | 0.00 | 0.02 | 0.00 | 97 | 1010.6 |
| 20260905053022 | 74 | 84 | 0.0 | 0.0 | 0.00 | 0.02 | 0.00 | 97 | 1010.5 |
| 20260905051523 | 74 | 85 | 0.0 | 2.0 | 0.00 | 0.02 | 0.00 | 97 | 1010.6 |
| 20260905050016 | 74 | 86 | 0.0 | 0.0 | 0.00 | 0.02 | 0.00 | 97 | 1010.5 |
| 20260905044517 | 73 | 86 | 0.0 | 2.0 | 0.00 | 0.02 | 0.02 | 97 | 1010.4 |
| 20260905043015 | 73 | 86 | 0.0 | 3.0 | 0.00 | 0.02 | 0.02 | 96 | 1010.6 |
| 20260905041515 | 74 | 86 | 0.0 | 0.0 | 0.00 | 0.02 | 0.02 | 96 | 1010.7 |
| 20260905040019 | 74 | 86 | 0.0 | 2.0 | 0.00 | 0.02 | 0.02 | 96 | 1010.8 |
| 20260905034513 | 74 | 360 | 0.0 | 3.0 | 0.00 | 0.02 | 0.02 | 96 | 1011.0 |
| 20260905033013 | 74 | 343 | 1.0 | 3.0 | 0.00 | 0.02 | 0.02 | 96 | 1011.2 |
| 20260905031514 | 73 | 69 | 0.0 | 4.0 | 0.00 | 0.02 | 0.02 | 97 | 1010.9 |
| 20260905030012 | 73 | 74 | 2.0 | 4.0 | 0.00 | 0.02 | 0.02 | 97 | 1011.1 |
| 20260905024512 | 73 | 65 | 0.0 | 4.0 | 0.00 | 0.02 | 0.02 | 97 | 1011.0 |
| 20260905023012 | 73 | 62 | 1.0 | 6.0 | 0.00 | 0.02 | 0.02 | 96 | 1011.3 |
| 20260905021511 | 73 | 76 | 1.0 | 5.0 | 0.00 | 0.02 | 0.02 | 96 | 1011.0 |
| 20260905020011 | 73 | 72 | 1.0 | 8.0 | 0.00 | 0.02 | 0.02 | 95 | 1011.2 |
| 20260905014511 | 74 | 63 | 1.0 | 4.0 | 0.00 | 0.02 | 0.02 | 96 | 1011.2 |
| 20260905013009 | 74 | 53 | 4.0 | 7.0 | 0.00 | 0.02 | 0.02 | 95 | 1011.1 |
| 20260905011509 | 74 | 37 | 1.0 | 5.0 | 0.00 | 0.02 | 0.02 | 95 | 1010.7 |
| 20260905010015 | 75 | 73 | 3.0 | 7.0 | 0.00 | 0.02 | 0.02 | 93 | 1010.5 |
| 20260905004509 | 75 | 67 | 2.0 | 5.0 | 0.00 | 0.02 | 0.02 | 90 | 1010.0 |
| 20260905003016 | 75 | 44 | 1.0 | 7.0 | 0.00 | 0.02 | 0.02 | 89 | 1010.2 |
| 20260905001507 | 76 | 65 | 2.0 | 9.0 | 0.00 | 0.02 | 0.02 | 90 | 1010.1 |
| 20260905000018 | 77 | 17 | 5.0 | 10.0 | 0.00 | 0.02 | 0.02 | 86 | 1009.9 |
| 20260904234506 | 85 | 84 | 0.0 | 3.0 | 0.00 | 0.02 | 0.02 | 70 | 1009.4 |
| 20260904233006 | 88 | 117 | 0.0 | 1.0 | 0.00 | 0.02 | 0.02 | 72 | 1009.2 |
| 20260904231505 | 89 | 117 | 0.0 | 1.0 | 0.00 | 0.02 | 0.02 | 70 | 1009.1 |
| 20260904230006 | 89 | 254 | 0.0 | 4.0 | 0.00 | 0.02 | 0.02 | 68 | 1009.0 |
| 20260904224504 | 90 | 188 | 0.0 | 3.0 | 0.00 | 0.02 | 0.02 | 67 | 1009.0 |
| 20260904223009 | 91 | 194 | 0.0 | 4.0 | 0.00 | 0.02 | 0.02 | 64 | 1009.0 |
| 20260904221503 | 90 | 254 | 1.0 | 5.0 | 0.00 | 0.02 | 0.02 | 65 | 1009.0 |
| 20260904220114 | 89 | 215 | 1.0 | 5.0 | 0.00 | 0.02 | 0.02 | 66 | 1009.0 |
| 20260904214559 | 89 | 205 | 0.0 | 2.0 | 0.00 | 0.02 | 0.02 | 68 | 1009.0 |
| 20260904213058 | 89 | 281 | 0.0 | 6.0 | 0.00 | 0.02 | 0.02 | 67 | 1009.1 |
| 20260904211612 | 89 | 225 | 1.0 | 4.0 | 0.00 | 0.02 | 0.02 | 65 | 1009.0 |
| 20260904210056 | 89 | 221 | 0.0 | 5.0 | 0.00 | 0.02 | 0.02 | 65 | 1008.9 |
| 20260904204555 | 90 | 223 | 2.0 | 6.0 | 0.00 | 0.02 | 0.02 | 64 | 1008.9 |
| 20260904203054 | 88 | 205 | 1.0 | 5.0 | 0.00 | 0.02 | 0.02 | 66 | 1009.3 |
| 20260904201551 | 87 | 232 | 0.0 | 6.0 | 0.00 | 0.02 | 0.02 | 66 | 1009.4 |
| 20260904200053 | 88 | 240 | 2.0 | 10.0 | 0.00 | 0.02 | 0.02 | 65 | 1009.5 |
| 20260904194550 | 87 | 221 | 3.0 | 8.0 | 0.00 | 0.03 | 0.02 | 68 | 1009.9 |
| 20260904193043 | 86 | 204 | 3.0 | 8.0 | 0.00 | 0.03 | 0.02 | 69 | 1010.1 |
| 20260904191546 | 85 | 209 | 2.0 | 9.0 | 0.00 | 0.03 | 0.02 | 71 | 1010.6 |
| 20260904190045 | 84 | 213 | 3.0 | 9.0 | 0.00 | 0.03 | 0.02 | 73 | 1010.8 |
| 20260904184536 | 82 | 277 | 4.0 | 16.0 | 0.00 | 0.03 | 0.02 | 77 | 1011.0 |
| 20260904183027 | 81 | 217 | 3.0 | 8.0 | 0.01 | 0.03 | 0.02 | 82 | 1011.3 |
| 20260904181523 | 78 | 217 | 6.0 | 12.0 | 0.01 | 0.03 | 0.02 | 87 | 1011.3 |
| 20260904180018 | 76 | 220 | 7.0 | 22.0 | 0.02 | 0.03 | 0.02 | 91 | 1011.2 |
| 20260904174514 | 74 | 232 | 10.0 | 18.0 | 0.02 | 0.03 | 0.02 | 95 | 1011.5 |
| 20260904173029 | 72 | 232 | 9.0 | 14.0 | 0.01 | 0.02 | 0.01 | 96 | 1011.9 |
| 20260904171516 | 73 | 175 | 4.0 | 8.0 | 0.01 | 0.02 | 0.01 | 95 | 1013.4 |
| 20260904170015 | 73 | 214 | 3.0 | 8.0 | 0.00 | 0.01 | 0.00 | 95 | 1014.6 |
| 20260904164515 | 73 | 227 | 6.0 | 10.0 | 0.00 | 0.13 | 0.00 | 95 | 1014.1 |
| 20260904163012 | 73 | 216 | 6.0 | 10.0 | 0.00 | 0.13 | 0.00 | 95 | 1014.1 |
| 20260904161511 | 73 | 200 | 6.0 | 13.0 | 0.00 | 0.13 | 0.00 | 95 | 1014.3 |
| 20260904160012 | 73 | 175 | 7.0 | 10.0 | 0.00 | 0.13 | 0.00 | 94 | 1014.6 |
| 20260904154510 | 73 | 115 | 8.0 | 12.0 | 0.00 | 0.13 | 0.00 | 95 | 1015.0 |
| 20260904153009 | 73 | 134 | 8.0 | 14.0 | 0.00 | 0.13 | 0.00 | 95 | 1014.9 |
| 20260904151512 | 74 | 99 | 8.0 | 12.0 | 0.00 | 0.13 | 0.00 | 94 | 1015.1 |
| 20260904150014 | 73 | 117 | 9.0 | 14.0 | 0.00 | 0.13 | 0.00 | 95 | 1014.8 |
| 20260904144504 | 74 | 137 | 3.0 | 8.0 | 0.00 | 0.13 | 0.00 | 96 | 1013.9 |
| 20260904143002 | 74 | 169 | 1.0 | 5.0 | 0.00 | 0.13 | 0.00 | 95 | 1013.2 |
| 20260904141601 | 74 | 185 | 1.0 | 5.0 | 0.00 | 0.13 | 0.00 | 96 | 1013.0 |
| 20260904134558 | 72 | 90 | 0.0 | 3.0 | 0.00 | 0.13 | 0.00 | 98 | 1013.2 |
| 20260904133102 | 71 | 74 | 2.0 | 5.0 | 0.00 | 0.13 | 0.00 | 98 | 1013.2 |
| 20260904131553 | 71 | 76 | 0.0 | 4.0 | 0.00 | 0.13 | 0.00 | 98 | 1013.0 |
| 20260904130051 | 70 | 67 | 3.0 | 5.0 | 0.00 | 0.13 | 0.00 | 98 | 1012.8 |
| 20260904124552 | 71 | 65 | 1.0 | 5.0 | 0.00 | 0.13 | 0.00 | 97 | 1012.6 |
| 20260904123046 | 72 | 121 | 0.0 | 1.0 | 0.00 | 0.13 | 0.00 | 98 | 1012.1 |
| 20260904121546 | 71 | 77 | 2.0 | 4.0 | 0.00 | 0.13 | 0.00 | 97 | 1012.1 |
| 20260904120052 | 71 | 75 | 0.0 | 3.0 | 0.00 | 0.13 | 0.00 | 98 | 1011.7 |
| 20260904114545 | 70 | 64 | 0.0 | 5.0 | 0.00 | 0.13 | 0.00 | 97 | 1011.4 |
| 20260904113041 | 70 | 63 | 4.0 | 9.0 | 0.00 | 0.13 | 0.00 | 98 | 1011.4 |
| 20260904111539 | 71 | 63 | 5.0 | 14.0 | 0.00 | 0.13 | 0.00 | 98 | 1011.1 |
| 20260904110042 | 71 | 85 | 8.0 | 19.0 | 0.00 | 0.13 | 0.00 | 98 | 1011.0 |
| 20260904104536 | 72 | 34 | 5.0 | 9.0 | 0.00 | 0.13 | 0.00 | 96 | 1010.6 |